Time,TemperatureF,DewpointF,PressureIn,WindDirection,WindDirectionDegrees,WindSpeedMPH,WindSpeedGustMPH,Humidity,HourlyPrecipIn,Conditions,Clouds,dailyrainin,SoftwareType,DateUTC
2013-08-22 00:23:00,80.0,77.0,26.41,ENE,77,19.0,22.0,91,0.02,,,0.06,,2013-08-22 04:23:00,
2013-08-22 00:54:00,81.0,78.0,26.41,East,79,16.0,21.0,92,0.03,,,0.07,,2013-08-22 04:54:00,
2013-08-22 01:22:00,82.0,80.0,26.41,ENE,68,16.0,20.0,93,0.04,,,0.09,,2013-08-22 05:22:00,
2013-08-22 01:53:00,80.0,78.0,26.41,East,91,14.0,19.0,93,0.05,,,0.11,,2013-08-22 05:53:00,
2013-08-22 02:22:00,80.0,78.0,26.41,East,79,16.0,20.0,93,0.04,,,0.13,,2013-08-22 06:22:00,
2013-08-22 02:52:00,78.0,75.0,26.41,South,169,25.0,40.0,90,0.03,,,0.14,,2013-08-22 06:52:00,
2013-08-22 03:22:00,77.0,74.0,26.41,South,186,6.0,17.0,92,0.07,,,0.20,,2013-08-22 07:22:00,
2013-08-22 03:53:00,77.0,75.0,26.41,ESE,121,6.0,7.0,93,0.08,,,0.22,,2013-08-22 07:53:00,
2013-08-22 04:22:00,78.0,76.0,26.41,ESE,123,12.0,15.0,94,0.02,,,0.22,,2013-08-22 08:22:00,
2013-08-22 04:53:00,80.0,78.0,26.41,SE,131,18.0,22.0,94,0.00,,,0.22,,2013-08-22 08:53:00,
2013-08-22 05:22:00,78.0,76.0,26.41,SE,135,25.0,30.0,93,0.02,,,0.24,,2013-08-22 09:22:00,
2013-08-22 05:54:00,79.0,77.0,26.41,SE,141,18.0,23.0,94,0.02,,,0.24,,2013-08-22 09:54:00,
2013-08-22 06:23:00,79.0,77.0,26.41,SE,138,19.0,25.0,93,0.00,,,0.24,,2013-08-22 10:23:00,
2013-08-22 06:31:00,81.0,79.0,26.41,SE,127,20.0,25.0,93,0.00,,,0.24,,2013-08-22 10:31:00,
2013-08-22 08:52:00,84.0,79.0,26.41,ESE,121,15.0,18.0,85,0.00,,,0.24,,2013-08-22 12:52:00,
2013-08-22 09:12:00,85.0,80.0,26.41,ESE,122,17.0,19.0,84,0.00,,,0.24,,2013-08-22 13:12:00,
2013-08-22 09:22:00,85.0,80.0,26.41,ESE,119,20.0,21.0,84,0.00,,,0.24,,2013-08-22 13:22:00,
2013-08-22 09:52:00,85.0,79.0,26.41,ESE,115,18.0,22.0,83,0.00,,,0.24,,2013-08-22 13:52:00,
2013-08-22 10:22:00,86.0,80.0,26.41,SE,129,15.0,20.0,82,0.00,,,0.24,,2013-08-22 14:22:00,
2013-08-22 10:52:00,86.0,80.0,26.41,ESE,110,23.0,27.0,82,0.00,,,0.24,,2013-08-22 14:52:00,
2013-08-22 11:22:00,88.0,81.0,26.41,SE,126,25.0,29.0,79,0.00,,,0.24,,2013-08-22 15:22:00,
2013-08-22 11:55:00,89.0,81.0,26.41,SE,127,23.0,28.0,77,0.00,,,0.24,,2013-08-22 15:55:00,
2013-08-22 12:25:00,87.0,80.0,26.41,SE,146,24.0,31.0,79,0.00,,,0.24,,2013-08-22 16:25:00,
2013-08-22 12:54:00,87.0,81.0,26.41,SE,140,17.0,21.0,83,0.00,,,0.24,,2013-08-22 16:54:00,
2013-08-22 13:24:00,90.0,82.0,26.41,SE,134,15.0,18.0,77,0.00,,,0.24,,2013-08-22 17:24:00,
2013-08-22 13:53:00,89.0,80.0,26.41,ESE,115,22.0,25.0,76,0.00,,,0.24,,2013-08-22 17:53:00,
2013-08-22 14:22:00,88.0,81.0,26.41,East,100,19.0,28.0,79,0.00,,,0.24,,2013-08-22 18:22:00,
2013-08-22 14:52:00,89.0,81.0,26.41,East,101,16.0,26.0,77,0.00,,,0.24,,2013-08-22 18:52:00,
2013-08-22 15:22:00,89.0,80.0,26.41,ESE,121,22.0,25.0,74,0.00,,,0.24,,2013-08-22 19:22:00,
2013-08-22 15:53:00,89.0,80.0,26.41,ESE,119,18.0,23.0,75,0.00,,,0.24,,2013-08-22 19:53:00,
2013-08-22 16:12:00,89.0,80.0,26.41,ESE,110,18.0,22.0,75,0.00,,,0.24,,2013-08-22 20:12:00,
2013-08-22 16:23:00,89.0,80.0,26.41,ESE,121,21.0,24.0,75,0.00,,,0.24,,2013-08-22 20:23:00,
2013-08-22 16:52:00,90.0,81.0,26.41,East,101,21.0,24.0,74,0.00,,,0.24,,2013-08-22 20:52:00,
2013-08-22 17:22:00,91.0,80.0,26.41,ESE,115,20.0,24.0,70,0.00,,,0.24,,2013-08-22 21:22:00,
2013-08-22 17:54:00,90.0,78.0,26.41,ESE,115,21.0,23.0,69,0.00,,,0.24,,2013-08-22 21:54:00,
2013-08-22 18:01:00,89.0,79.0,26.41,ESE,123,19.0,24.0,73,0.00,,,0.24,,2013-08-22 22:01:00,
2013-08-22 18:25:00,89.0,79.0,26.41,ESE,123,19.0,24.0,73,0.00,,,0.24,,2013-08-22 22:25:00,
2013-08-22 18:34:00,89.0,79.0,26.41,ESE,123,19.0,24.0,73,0.00,,,0.24,,2013-08-22 22:34:00,
2013-08-22 18:53:00,89.0,79.0,26.41,ESE,123,19.0,24.0,73,0.00,,,0.24,,2013-08-22 22:53:00,